Weather History for KIFA - February, 2014

Change the Weather History Date:

Friday, February 7, 2014

  Actual Average Record
Temperature  
Mean Temperature 2 °F -  
Max Temperature 14 °F 27 °F 58 °F (1987)
Min Temperature -9 °F 8 °F -13 °F (1979)
Degree Days  
Heating Degree Days 62    
Moisture  
Dew Point -5 °F    
Average Humidity 74    
Maximum Humidity 82    
Minimum Humidity 62    
Precipitation  
Precipitation 0.00 in - - ()
Sea Level Pressure  
Sea Level Pressure 30.26 in    
Wind  
Wind Speed 10 mph (SSW)    
Max Wind Speed 16 mph    
Max Gust Speed -    
Visibility 10 miles    
Events      
Averages and records for this station are not official NWS values.
T = Trace of Precipitation, MM = Missing Value Source: NWS Daily Summary

Daily Weather History Graph

Daily Weather History Graph

Search for Another Location

Airport or City:

Trip Planner

Search our weather history database for the weather conditions in past years. The results will help you decide how hot, cold, wet, or windy it might be!

Date:

Astronomy

Feb. 07, 2014 Rise Set
Actual Time 7:20 AM CST 5:34 PM CST
Civil Twilight 6:50 AM CST 6:04 PM CST
Nautical Twilight 6:17 AM CST 6:37 PM CST
Astronomical Twilight 5:44 AM CST 7:10 PM CST
Moon 11:45 AM CST (2/7) 1:37 AM CST (2/7)
Length of Visible Light 11h 13m
Length of Day
10h 14m
First Quarter, 59% of the Moon is Illuminated
Feb 7
First Quarter
Feb 14
Full
Feb 22
Last Quarter
Mar 1
New
Mar 8
First Quarter

Hourly Weather History & Observations

Time (CST) Temp. Windchill Dew Point Humidity Pressure Visibility Wind Dir Wind Speed Gust Speed Precip Events Conditions
12:15 AM -6.9 °F -22.5 °F -11.4 °F 81% 30.34 in 10.0 mi SW 8.1 mph - N/A   Clear
12:35 AM -5.8 °F -22.4 °F -10.3 °F 81% 30.34 in 10.0 mi SW 9.2 mph - N/A   Clear
12:56 AM -4.0 °F -21.2 °F -8.1 °F 82% 30.34 in 10.0 mi SW 10.4 mph - N/A   Clear
1:15 AM -5.3 °F -21.7 °F -9.8 °F 81% 30.33 in 10.0 mi SW 9.2 mph - N/A   Clear
1:35 AM -4.7 °F -22.1 °F -9.4 °F 80% 30.32 in 10.0 mi WSW 10.4 mph - N/A   Clear
1:55 AM -4.9 °F -22.3 °F -9.4 °F 81% 30.32 in 10.0 mi WSW 10.4 mph - N/A   Clear
2:15 AM -6.3 °F -23.1 °F -11.2 °F 79% 30.32 in 10.0 mi WSW 9.2 mph - N/A   Clear
2:35 AM -6.9 °F -23.7 °F -11.7 °F 79% 30.31 in 10.0 mi WSW 9.2 mph - N/A   Clear
2:55 AM -7.6 °F -24.6 °F -12.3 °F 80% 30.31 in 10.0 mi WSW 9.2 mph - N/A   Clear
3:15 AM -7.6 °F -24.6 °F -12.5 °F 79% 30.31 in 10.0 mi WSW 9.2 mph - N/A   Clear
3:35 AM -7.8 °F -24.8 °F -12.8 °F 79% 30.31 in 10.0 mi WSW 9.2 mph - N/A   Clear
3:55 AM -8.3 °F -24.3 °F -13.4 °F 79% 30.30 in 10.0 mi WSW 8.1 mph - N/A   Clear
4:15 AM -7.8 °F -22.3 °F -12.8 °F 79% 30.30 in 10.0 mi SW 6.9 mph - N/A   Clear
4:35 AM -8.7 °F -24.7 °F -13.7 °F 79% 30.30 in 10.0 mi WSW 8.1 mph - N/A   Clear
4:55 AM -8.9 °F -26.2 °F -14.3 °F 77% 30.29 in 10.0 mi SW 9.2 mph - N/A   Clear
5:15 AM -8.9 °F -25.0 °F -14.1 °F 78% 30.28 in 10.0 mi SW 8.1 mph - N/A   Clear
5:35 AM -9.4 °F -24.3 °F -14.8 °F 77% 30.28 in 10.0 mi SW 6.9 mph - N/A   Clear
5:55 AM -9.4 °F -26.8 °F -14.8 °F 77% 30.28 in 10.0 mi SW 9.2 mph - N/A   Clear
6:15 AM -9.4 °F -26.8 °F -14.3 °F 79% 30.28 in 10.0 mi SW 9.2 mph - N/A   Clear
6:35 AM -7.8 °F -25.9 °F -13.0 °F 78% 30.28 in 10.0 mi SW 10.4 mph - N/A   Clear
6:55 AM -7.6 °F -26.6 °F -12.3 °F 80% 30.29 in 10.0 mi SW 11.5 mph - N/A   Clear
7:15 AM -7.4 °F -25.4 °F -12.3 °F 79% 30.29 in 10.0 mi SW 10.4 mph - N/A   Clear
7:35 AM -6.5 °F -23.3 °F -11.9 °F 77% 30.29 in 10.0 mi SW 9.2 mph - N/A   Clear
7:55 AM -6.7 °F -23.5 °F -11.6 °F 79% 30.30 in 10.0 mi SW 9.2 mph - N/A   Clear
8:15 AM -5.1 °F -23.5 °F -9.8 °F 80% 30.30 in 10.0 mi SW 11.5 mph - N/A   Clear
8:35 AM -2.2 °F -18.9 °F -7.4 °F 78% 30.30 in 10.0 mi SW 10.4 mph - N/A   Clear
8:55 AM -2.2 °F -18.9 °F -7.6 °F 78% 30.31 in 10.0 mi SW 10.4 mph - N/A   Clear
9:15 AM -0.4 °F -19.9 °F -5.8 °F 78% 30.31 in 10.0 mi WSW 15.0 mph - N/A   Clear
9:35 AM 0.5 °F -18.0 °F -5.1 °F 77% 30.31 in 10.0 mi WSW 13.8 mph - N/A   Clear
9:55 AM 1.2 °F -16.4 °F -4.5 °F 77% 30.31 in 10.0 mi WSW 12.7 mph - N/A   Clear
10:15 AM 2.8 °F -14.3 °F -3.6 °F 74% 30.31 in 10.0 mi WSW 12.7 mph - N/A   Clear
10:35 AM 3.4 °F -12.0 °F -2.4 °F 77% 30.31 in 10.0 mi WSW 10.4 mph - N/A   Clear
10:55 AM 5.9 °F -8.9 °F -1.3 °F 72% 30.31 in 10.0 mi WSW 10.4 mph - N/A   Clear
11:15 AM 7.5 °F -6.9 °F 0.3 °F 72% 30.31 in 10.0 mi SW 10.4 mph - N/A   Clear
11:35 AM 8.6 °F -6.3 °F 1.4 °F 73% 30.30 in 10.0 mi SW 11.5 mph - N/A   Clear
11:55 AM 9.7 °F -5.0 °F 2.3 °F 72% 30.30 in 10.0 mi SW 11.5 mph - N/A   Clear
12:15 PM 10.4 °F -4.1 °F 2.8 °F 72% 30.29 in 10.0 mi SSW 11.5 mph - N/A   Clear
12:35 PM 11.3 °F -3.6 °F 3.6 °F 71% 30.28 in 10.0 mi SW 12.7 mph - N/A   Clear
12:55 PM 11.8 °F -4.8 °F 3.6 °F 69% 30.28 in 10.0 mi SW 16.1 mph - N/A   Clear
1:15 PM 12.4 °F -2.9 °F 3.9 °F 69% 30.27 in 10.0 mi SW 13.8 mph - N/A   Clear
1:35 PM 13.1 °F -2.0 °F 3.9 °F 67% 30.26 in 10.0 mi SW 13.8 mph - N/A   Clear
1:55 PM 14.0 °F -1.4 °F 4.8 °F 67% 30.25 in 10.0 mi SW 15.0 mph - N/A   Clear
2:15 PM 14.0 °F -1.4 °F 4.5 °F 66% 30.24 in 10.0 mi SW 15.0 mph - N/A   Clear
2:35 PM 14.0 °F -0.2 °F 4.3 °F 65% 30.24 in 10.0 mi SW 12.7 mph - N/A   Clear
2:55 PM 14.9 °F 0.3 °F 4.1 °F 62% 30.23 in 10.0 mi SW 13.8 mph - N/A   Clear
3:15 PM 14.9 °F 0.9 °F 4.5 °F 63% 30.23 in 10.0 mi SW 12.7 mph - N/A   Clear
3:35 PM 14.4 °F 1.6 °F 3.7 °F 63% 30.23 in 10.0 mi SW 10.4 mph - N/A   Clear
3:55 PM 14.0 °F 0.5 °F 3.4 °F 63% 30.22 in 10.0 mi SSW 11.5 mph - N/A   Clear
4:15 PM 13.6 °F -0.7 °F 2.7 °F 62% 30.22 in 10.0 mi SSW 12.7 mph - N/A   Clear
4:35 PM 13.1 °F 0.9 °F 2.7 °F 63% 30.21 in 10.0 mi SSW 9.2 mph - N/A   Clear
4:55 PM 12.2 °F 1.7 °F 2.5 °F 65% 30.21 in 10.0 mi SSW 6.9 mph - N/A   Clear
5:15 PM 9.5 °F -3.5 °F 0.5 °F 67% 30.21 in 10.0 mi South 9.2 mph - N/A   Clear
5:35 PM 7.5 °F -6.9 °F -0.8 °F 69% 30.21 in 10.0 mi South 10.4 mph - N/A   Clear
5:55 PM 7.2 °F -5.4 °F -1.7 °F 67% 30.21 in 10.0 mi South 8.1 mph - N/A   Clear
6:15 PM 6.6 °F -6.1 °F -2.0 °F 68% 30.21 in 10.0 mi South 8.1 mph - N/A   Clear
6:35 PM 3.7 °F -9.6 °F -3.8 °F 71% 30.21 in 10.0 mi South 8.1 mph - N/A   Clear
6:55 PM 3.9 °F -10.4 °F -3.3 °F 72% 30.21 in 10.0 mi South 9.2 mph - N/A   Clear
7:15 PM 3.9 °F -10.4 °F -3.6 °F 71% 30.21 in 10.0 mi South 9.2 mph - N/A   Clear
7:35 PM 3.4 °F -10.0 °F -3.6 °F 73% 30.21 in 10.0 mi SSE 8.1 mph - N/A   Clear
7:55 PM 3.2 °F -10.3 °F -3.5 °F 74% 30.21 in 10.0 mi South 8.1 mph - N/A   Clear
8:15 PM 3.6 °F -9.8 °F -2.7 °F 75% 30.21 in 10.0 mi South 8.1 mph - N/A   Clear
8:35 PM 3.6 °F -9.8 °F -2.2 °F 77% 30.21 in 10.0 mi South 8.1 mph - N/A   Clear
8:55 PM 3.0 °F -9.3 °F -3.1 °F 76% 30.20 in 10.0 mi SSE 6.9 mph - N/A   Clear
9:15 PM 4.5 °F -7.6 °F -2.2 °F 74% 30.21 in 10.0 mi South 6.9 mph - N/A   Clear
9:35 PM 2.5 °F -11.1 °F -3.8 °F 75% 30.21 in 10.0 mi South 8.1 mph - N/A   Clear
9:55 PM 2.7 °F -9.7 °F -3.3 °F 76% 30.21 in 10.0 mi South 6.9 mph - N/A   Clear
10:15 PM 2.1 °F -10.4 °F -4.0 °F 76% 30.20 in 10.0 mi South 6.9 mph - N/A   Clear
10:35 PM 2.8 °F -9.5 °F -3.1 °F 76% 30.20 in 10.0 mi South 6.9 mph - N/A   Clear
10:55 PM 3.9 °F -6.9 °F -2.2 °F 76% 30.20 in 10.0 mi SSE 5.8 mph - N/A   Mostly Cloudy
11:15 PM 4.8 °F -5.8 °F -1.3 °F 76% 30.19 in 10.0 mi SSE 5.8 mph - N/A   Overcast
11:35 PM 6.4 °F -2.4 °F 0.5 °F 77% 30.19 in 10.0 mi SSE 4.6 mph - N/A   Overcast
11:55 PM 7.7 °F -0.9 °F 1.8 °F 77% 30.18 in 10.0 mi SSE 4.6 mph - N/A   Overcast